Theta_e
322 321 323 321 321 317 317 314 315 314 317 318 318 316 316 316 317 320 318 317 319 321
321 322 321 320 321 320 320 317 316 317 318 318 317 317 317 316 316 316 316 317 319 319
319 321 321 320 319 320 320 317 316 316 317 317 317 318 318 318 318 317 318 318 318 319
318 319 319 319 319 319 320 319 316 315 314 314 314 316 317 316 317 317 318 319 320 318
317 318 319 318 318 319 318 320 319 318 316 314 313 314 315 316 316 315 315 316 315 315
316 316 317 318 317 318 317 317 317 319 317 316 315 315 315 316 316 315 315 315 315 314
316 318 316 317 316 317 318 317 317 317 317 318 317 316 316 316 316 316 316 316 315 314
318 318 317 315 316 316 316 316 316 316 315 316 316 317 317 317 316 315 312 305 301 299
317 317 317 316 315 315 316 316 315 315 314 313 312 300 300 309 313 310 302 295 292 292
317 317 317 317 315 314 314 315 314 314 314 312 312 298 299 299 310 306 298 292 289 288
317 317 317 317 315 316 315 313 312 311 311 311 309 296 296 295 303 299 295 291 289 287
304 315 316 316 315 316 313 313 313 310 308 307 299 292 292 294 292 288 286 286 286 285
298 300 312 315 315 313 312 308 299 295 299 294 291 290 291 291 287 285 284 285 285 285
293 295 298 312 308 305 296 292 289 288 289 291 291 290 290 290 288 285 283 283 283 283
Wind_Speed
10 7 6 7 6 7 7 9 12 12 13 13 14 12 11 8 10 12 9 11 8 6
7 7 5 7 6 6 7 9 13 12 13 13 13 13 12 9 8 9 8 8 7 6
7 5 5 6 7 6 7 13 13 14 13 13 12 12 13 10 10 10 7 8 10 7
7 6 4 5 5 7 6 11 14 15 16 16 13 10 8 10 10 9 11 10 12 11
7 7 7 6 5 6 6 7 9 12 13 14 15 16 15 12 12 15 13 12 9 8
9 8 8 8 8 6 6 6 6 10 12 14 15 16 16 15 13 14 11 11 11 11
12 11 9 8 8 8 8 9 8 7 8 12 14 17 16 15 14 13 12 12 10 10
11 11 11 9 8 8 8 8 9 8 7 7 7 8 13 15 15 15 10 7 6 4
11 11 12 12 11 10 10 10 9 9 9 8 5 9 9 11 10 9 10 9 9 11
11 12 13 12 13 13 13 11 10 9 9 9 9 14 13 11 7 8 8 10 10 9
10 11 12 13 13 14 13 13 12 11 11 9 8 13 14 11 7 8 9 10 11 12
10 8 12 13 12 11 10 9 11 11 11 10 5 9 16 13 10 10 10 9 10 12
9 10 9 12 12 9 9 7 5 5 6 12 9 13 18 17 10 12 10 10 11 18
9 7 11 7 5 7 7 9 7 7 6 4 7 13 19 22 13 13 12 12 11 11
Wind_Direction
202 215 224 207 188 177 169 162 155 158 159 159 152 151 159 162 162 167 160 159 170 156
185 205 193 188 189 160 157 153 150 151 145 141 137 141 150 162 144 153 150 152 138 137
164 184 179 164 171 161 156 154 156 155 150 133 133 142 146 151 154 149 154 163 164 161
153 166 156 148 153 164 151 162 171 168 166 164 160 155 157 156 155 159 168 169 187 176
159 161 165 148 148 153 157 159 160 158 163 166 171 183 187 179 176 185 184 180 168 181
174 179 177 171 159 155 154 152 145 166 165 171 180 183 191 194 188 197 194 186 191 189
178 189 182 170 168 166 163 164 164 174 172 182 181 188 190 191 197 191 202 203 203 215
183 189 183 177 175 168 170 173 167 163 165 165 176 185 184 183 188 190 180 139 116 89
190 186 190 186 185 180 180 173 170 177 173 169 166 161 162 168 171 156 147 126 109 104
198 195 191 190 187 190 190 183 181 179 178 181 180 173 176 167 159 147 133 131 128 113
203 198 197 194 193 193 194 189 185 183 182 182 184 172 173 151 119 112 126 138 138 132
337 223 201 197 196 190 183 187 189 184 178 175 152 146 140 119 110 102 98 105 115 123
342 326 256 198 192 183 181 173 141 131 154 149 140 155 144 129 128 120 118 111 113 122
359 332 298 214 160 146 120 110 87 74 49 66 138 148 148 144 143 139 132 127 122 120